Other Public Products
Issued by NWS Charleston, SC

Current Version | Previous Version | Graphics & Text | Print | Product List | Glossary On
Versions: 1 2 3 4 5 6 7 8 9 10 11 12 13 14 15 16 17 18 19 20 21 22 23 24 25 26 27 28 29 30 31 32 33 34 35 36 37 38 39 40 41 42 43 44 45 46 47 48 49 50
000
FPUS82 KCHS 201239
OPUCHS

TEST...KCHS/KSAV Gateway Observations...TEST
National Weather Service Charleston SC
800 AM EDT WED SEP 20 2017

NOTE: "fair" indicates few or no clouds below 12,000 feet with no
significant weather and/or obstructions to visibility.

SCZ050-WAZ558-NCZ071-TXZ119-213-PAZ071-DCZ001-FLZ074-172-MI076-
NYZ176-178-MAZ016-IL014-TNZ027-NJZ106-GAZ044-MD014-201300-

...Gateway Observations for Charleston International...

CITY           SKY/WX    TMP DP  RH WIND       PRES   REMARKS
Chas Airport   PTSUNNY   74  74 100 CALM      30.03R
6HR MIN TEMP:  72; 6HR MAX TEMP:  75;

Seattle        CLOUDY    51  48  89 SE5       29.62F
6HR MIN TEMP:  51; 6HR MAX TEMP:  54; 6HR PCP: TRACE;

Charlotte      PTCLDY    69  67  93 CALM      30.04R
6HR MIN TEMP:  67; 6HR MAX TEMP:  71;

Dallas DFW     PTCLDY    78  72  81 S12       29.85R
6HR MIN TEMP:  78; 6HR MAX TEMP:  84;

Dallas Love    PTCLDY    79  71  76 S15       29.87R
6HR MIN TEMP:  79; 6HR MAX TEMP:  85;

Philladelphia  MOSUNNY   71  62  73 NW10      29.90R
6HR MIN TEMP:  70; 6HR MAX TEMP:  72;

Wash National  PTSUNNY   71  64  78 NW9       29.96R
6HR MIN TEMP:  70; 6HR MAX TEMP:  73;

Baltimore      CLOUDY    71  65  81 NW7       29.93R
6HR MIN TEMP:  70; 6HR MAX TEMP:  72; 6HR PCP: TRACE;

Miami          MOSUNNY   83  77  82 CALM      29.98R HX  92
6HR MIN TEMP:  78; 6HR MAX TEMP:  83;

Detroit        FOG       66  66 100 CALM      30.02S VSB 3/4
6HR MIN TEMP:  64; 6HR MAX TEMP:  68;

Newark         CLOUDY    72  63  73 N20       29.86R
6HR MIN TEMP:  71; 6HR MAX TEMP:  72;

Laguardia      CLOUDY    72  65  78 N15G26    29.84R
6HR MIN TEMP:  71; 6HR MAX TEMP:  72;

J F K          PTSUNNY   73  64  73 N17G24    29.83R
6HR MIN TEMP:  71; 6HR MAX TEMP:  73;

Boston Logan   LGT RAIN  66  66 100 N20G29    29.89S FOG
6HR MIN TEMP:  64; 6HR MAX TEMP:  66; 6HR PCP:  0.08;

Ft. Lauderdale MOSUNNY   80  76  87 N3        29.97R
Chicago O`Hare PTCLDY    66  63  90 SE7       29.92S
6HR MIN TEMP:  62; 6HR MAX TEMP:  66;

Chicago Midway PTCLDY    67  64  90 SE7       29.93R
6HR MIN TEMP:  66; 6HR MAX TEMP:  67;

Houston Bush   PTCLDY    78  76  93 CALM      29.93R
6HR MIN TEMP:  78; 6HR MAX TEMP:  80;

Houston Hobby  PTCLDY    80  76  87 S3        29.93R
6HR MIN TEMP:  80; 6HR MAX TEMP:  82;

Nashville      PTCLDY    67  65  93 CALM      30.02R
6HR MIN TEMP:  67; 6HR MAX TEMP:  69;

Atlanta        PTCLDY    70  67  90 NW6       30.05R
6HR MIN TEMP:  69; 6HR MAX TEMP:  73;


$$

GAZ044-118-TXZ119-213-NCZ071-DCZ001-MDZ014-506-PAZ021-071-NJZ106-
NYZ176-178-MAZ106-OHZ011-021-055-MIZ076-KYZ091-ILZ014-INZ047-
MNZ060-ONZ431-201300-

...Gateway Observations for Savannah International...

CITY           SKY/WX    TMP DP  RH WIND       PRES   REMARKS
Savannah Arpt  MOCLDY    74  69  85 SW6       30.03R
6HR MIN TEMP:  73; 6HR MAX TEMP:  75;

Atlanta        PTCLDY    70  67  90 NW6       30.05R
6HR MIN TEMP:  69; 6HR MAX TEMP:  73;

Charlotte      PTCLDY    69  67  93 CALM      30.04R
6HR MIN TEMP:  67; 6HR MAX TEMP:  71;

Dallas DFW     PTCLDY    78  72  81 S12       29.85R
6HR MIN TEMP:  78; 6HR MAX TEMP:  84;

Houston Bush   PTCLDY    78  76  93 CALM      29.93R
6HR MIN TEMP:  78; 6HR MAX TEMP:  80;

Wash National  PTSUNNY   71  64  78 NW9       29.96R
6HR MIN TEMP:  70; 6HR MAX TEMP:  73;

Wash Dulles    MOSUNNY   65  63  93 NW3       29.98R
6HR MIN TEMP:  61; 6HR MAX TEMP:  67;

Baltimore      CLOUDY    71  65  81 NW7       29.93R
6HR MIN TEMP:  70; 6HR MAX TEMP:  72; 6HR PCP: TRACE;

Philadelphia   MOSUNNY   71  62  73 NW10      29.90R
6HR MIN TEMP:  70; 6HR MAX TEMP:  72;

Newark         CLOUDY    72  63  73 N20       29.86R
6HR MIN TEMP:  71; 6HR MAX TEMP:  72;

Laguardia      CLOUDY    72  65  78 N15G26    29.84R
6HR MIN TEMP:  71; 6HR MAX TEMP:  72;

J F K          PTSUNNY   73  64  73 N17G24    29.83R
6HR MIN TEMP:  71; 6HR MAX TEMP:  73;

Boston         LGT RAIN  66  66 100 N20G29    29.89S FOG
6HR MIN TEMP:  64; 6HR MAX TEMP:  66; 6HR PCP:  0.08;

Pittsburg      MOCLDY    64  62  93 CALM      30.03R
6HR MIN TEMP:  63; 6HR MAX TEMP:  66;

Akron          MOCLDY    67  63  87 CALM      30.04R
6HR MIN TEMP:  66; 6HR MAX TEMP:  69;

Cleveland      CLOUDY    70  65  84 CALM      30.04R
6HR MIN TEMP:  68; 6HR MAX TEMP:  71;

Cincinnati     PTCLDY    65  65 100 CALM      30.03R FOG
6HR MIN TEMP:  60; 6HR MAX TEMP:  66;

Columbus       PTCLDY    65  65 100 CALM      30.03R FOG
Detroit        FOG       66  66 100 CALM      30.02S VSB 3/4
6HR MIN TEMP:  64; 6HR MAX TEMP:  68;

Chicago O`Hare PTCLDY    66  63  90 SE7       29.92S
6HR MIN TEMP:  62; 6HR MAX TEMP:  66;

Minneapolis    CLOUDY    71  68  90 SE10      29.62R
6HR MIN TEMP:  70; 6HR MAX TEMP:  73; 6HR PCP:  0.04;

Indianapolis   PTCLDY    66  65  96 SE6       29.99R FOG
6HR MIN TEMP:  65; 6HR MAX TEMP:  68;

Toronto Canada MOCLDY    66  64  94 E7        30.04R

$$




USA.gov is the U.S. government's official web portal to all federal, state and local government web resources and services.